Regional Weather Roundup
Issued by NWS Charleston, SC

Current Version | Previous Version | Graphics & Text | Print | Product List | Glossary On
Versions: 1 2 3 4 5 6 7 8 9 10 11 12 13 14 15 16 17 18 19 20 21 22 23 24 25 26 27 28 29 30 31 32 33 34 35 36 37 38 39 40 41 42 43 44 45 46 47 48 49 50
000 ASUS42 KCHS 282328 RWRCHS REGIONAL WEATHER ROUNDUP NATIONAL WEATHER SERVICE CHARLESTON SC 700 PM EDT SAT MAY 28 2016 NOTE: "FAIR" INDICATES FEW OR NO CLOUDS BELOW 12,000 FEET WITH NO SIGNIFICANT WEATHER AND/OR OBSTRUCTIONS TO VISIBILITY. NOT ALL STATIONS ARE QUALITY CONTROLLED. USE DATA WITH CAUTION... ESPECIALLY DEWPOINT OBSERVATIONS. SCZ027-030-031-034>040-042>050-290000- ...SOUTHEAST SOUTH CAROLINA... CITY SKY/WX TMP DP RH WIND PRES REMARKS N CHARLESTON RAIN 70 68 93 N12 30.07F FOG WATERFRONT PRK N/A 70 70 100 N10 30.04F MOUNT PLEASANT LGT RAIN 70 70 100 N8 30.06F JOHNS ISLAND RAIN 70 70 100 N18 30.03F PINOPOLIS NOT AVBL MONCKS CORNER HVY RAIN 66 64 94 NE5 30.09S SUMMERVILLE RAIN 70 70 100 N9 30.09 BEAUFORT MCAS RAIN 70 67 90 NE12 30.06F FOG BEAUFORT ARPT HVY RAIN 70 68 94 NE20 30.06R HILTON HEAD IS RAIN 70 68 94 N12G25 30.06F WALTERBORO RAIN 70 70 100 NE6 30.10R ALLENDALE LGT RAIN 68 64 88 CALM 30.09S ...SOUTHERN MIDLANDS AND PEE DEE... CITY SKY/WX TMP DP RH WIND PRES REMARKS GEORGETOWN NOT AVBL KINGSTREE DRIZZLE 70 68 94 CALM 30.10S ORANGEBURG LGT RAIN 71 67 87 E3 30.11S BARNWELL FAIR 73 66 78 E9G16 30.11R AIKEN FAIR 77 64 65 N6 30.13S MANNING RAIN 68 66 94 NE3 30.11R COLUMBIA LGT RAIN 74 69 85 NE7 30.11R SUMTER CLOUDY 73 69 87 SE7 30.09S FLORENCE LGT RAIN 73 69 87 SE5 30.11S MYRTLE BEACH CLOUDY 73 66 78 N7 30.09F N MYRTLE BEACH LGT RAIN 76 71 85 N5 30.07F $$ GAZ063-065-086>088-099>101-113>116-118-119-134>141-150-290000- ...SOUTHEAST GEORGIA... CITY SKY/WX TMP DP RH WIND PRES REMARKS SAVANNAH ARPT CLOUDY 72 66 81 NE18G28 30.05S HUNTER AAF CLOUDY 72 68 88 N8G23 30.02F FORT STEWART CLOUDY 73 66 78 CALM 30.04R STATESBORO CLOUDY 75 68 78 NE7 30.07S SYLVANIA CLOUDY 74 64 70 E7 30.09S CLAXTON FAIR 76 65 70 NE9 30.08R ...CSRA...CENTRAL AND FAR SOUTHEAST GEORGIA... CITY SKY/WX TMP DP RH WIND PRES REMARKS THOMSON CLOUDY 80 70 70 NE6 30.14S AUGUSTA-BUSH CLOUDY 74 72 93 CALM 30.08S AUGUSTA-DANIEL CLOUDY 79 68 69 CALM 30.09F SWAINSBORO CLOUDY 73 70 88 CALM 30.08S VIDALIA PTSUNNY 79 68 69 E9 30.06S EASTMAN FAIR 85 65 51 E6 30.07S HAZLEHURST FAIR 85 64 49 NE7 30.03S ALMA SUNNY 85 65 51 N8 30.02S WAYCROSS SUNNY 84 66 53 NE12G17 30.02R JESUP FAIR 72 63 73 E12G17 30.06R BAXLEY FAIR 84 63 48 NE13 30.04R BRUNSWICK CLOUDY 79 70 73 N7 30.04S SAINT SIMONS CLOUDY 75 68 78 NE15G24 30.02S $$ SCZ027-028-034-036>038-045-046-048>050-GAZ119-141-290000- ...LAKE AND SUPPLEMENTAL COASTAL OBSERVATIONS... STATION/POSITION TIME TEMP WIND PRES WAVE SWELL AIR SEA DIR/SP/G HT/PER HT/PER/DIR (UTC) (F) (DEG/KT/KT) (MB) (FT/S) (FT/S/D) WINYAH BAY 2200 69 10/ 6 1018.0 LAKE MURRAY 2300 77 90/ 12/ 14 1018.6R ACE BASIN NERRS 2200 68 20/ 4 1018.0F FORT PULASKI 2300 20/ 18/ 22 N/A SAPELO ISLAND 2300 73 20/ 10 1017.0S $$ ANZ835-935-AMZ111-154-330-350-352-354-370-450-454-472-290000- ...C-MAN AND BUOY OBSERVATIONS... STATION/POSITION TIME TEMP WIND PRES WAVE SWELL AIR SEA DIR/SP/G HT/PER HT/PER/DIR (UTC) (F) (DEG/KT/KT) (MB) (FT/S) (FT/S/D) BUOY 41004 2250 76 76 60/ 16/ 19 1015.3R 9/ 8 7/ 8 BUOY 41008 2250 73 76 20/ 21/ 23 1016.0R 7/ 6 3/ 90/ 9 FOLLY BEACH CMAN 2300 70 350/ 19/ 25 1017.2F CAPERS NEARSHORE 2308 72 76 10/ 19/ 25 1016.6F FRIPP NEARSHORE 2308 72 76 30/ 23/ 29 1016.4F STATION/POSITION TIME TEMP WIND PRES WAVE SWELL AIR SEA DIR/SP/G HT/PER HT/PER/DIR (UTC) (F) (DEG/KT/KT) (MB) (FT/S) (FT/S/D) 5E ST. MARYS GA 2301 78 N/A 6/ 5 2/100/11 FRYING PAN BUOY 2300 77 76 60/ 19/ 23 1017.3R BUOY 41025 2250 78 79 120/ 10/ 12 1020.2F 5/ 8 5/120/ 8 CAPE LOOKOUT NC 2300 75 60/ 10/ 10 1019.4R BUOY 41002 2250 75 76 120/ 16/ 19 1017.9R 5/ 7 3/110/ 7 BUOY 41010 2220 79 79 250/ 6/ 8 1015.2R ST AUGUSTINE FL 2300 76 80 360/ 18/ 19 1017.3R $$

USA.gov is the U.S. government's official web portal to all federal, state and local government web resources and services.